STARLINK-11610, 63135

Orbit data source: Space-Track

STARLINK-11610, 63135 is a payload satellite owned by SpaceX/Seattle (US) in LEO that was launched on Mon, 03 Mar 2025 UTC via an FALCON 9 launch vehicle from the Air Force Eastern Test Range (AFETR). Payload-class satellites include a variety of spacecraft equipped with specific instruments for various scientific and technological missions. These include communications satellites like Starlink; space stations such as the ISS; scientific satellites like the Hubble; Earth observation satellites from companies like Planet Labs, Umbra, and HawkEye 360; GPS; miniature CubeSats for education and research; and military/defense satellites.

Loading next visibility...
Identifier
63135, 2025-043D
Orbit
LEO
Country
Flag of USUS
Related business
Manufacturer
SpaceX/Seattle
Mission
Operational Commercial Communications
Bus & Motor
STARLINK V2MD, Unknown motor
Mass
960 kg wet, ~910 kg dry
Launch date (UTC)
2025-03-03 (2 years ago)
Launch vehicle
FALCON 9
Launch site
Air Force Eastern Test Range (AFETR)
Object type
Payload
Rocket body
Debris
Shape & HBR
Box + 2 Pan, 18.1 m
Radar Cross Section
36.964 m², Large (>1 m²)

Expand to show TLE details & history
Last TLE update: 10 hours ago

TLE from 10 hours ago
0 STARLINK-11610
1 63135U 25043D   26255.90652597  .00193805  00000-0  14722-2 0  9999
2 63135  43.0011 202.4899 0001774 254.5842 105.4830 15.70947933 88793
Epoch: 2026-09-12T21:45Z
TLE epoch observation values (Epoch: 2026-09-12T21:45:23.843Z)
Latitude
-0.00002°
Longitude
-115.76827°
Altitude
356.277 km
Speed
7.697 km/s
True Right ascension
13h 29m 57s
True Declination
0° 00' 00"
Sunlit
Object was in daylight at epoch
Visualization orbit readout
Latitude
Unknown
Longitude
Unknown
Altitude
Unknown
Speed
Unknown
Apparent Right ascension
Unknown
Apparent Declination
Unknown
Sunlit
N/A
Visualization observer readout
Local Sidereal Time
23:51:08
Azimuth
Unknown
Elevation
Unknown
Doppler factor
Unknown
Orbital elements
Apogee altitude
359.363 km
Perigee altitude
356.973 km
Semi-major axis
6,736.305 km
Eccentricity
0.00018
Inclination
43.0011°
RAAN
202.4899°
Arg. of periapsis
254.5842°
True anomaly
105.50259°
Mean anomaly
105.483°
Eccentric anomaly
105.49279°
Mean motion
3.92564 °/min
Orbital period
91.7 mins
BSTAR
0.0014722
Loading maneuver chart data...
Computing Atmospheric mass density...
Loading historical data...
Loading historical data...
Loading historical data...
Loading historical data...
Loading historical data...
Loading historical data...
Loading historical data...

Documentation

Showing up to 5 results
|